Home   Weather   Shizuoka   Past weeks

Flag for Japan Past Weather in Shizuoka, Japan — Yesterday and Last 2 Weeks

Now
64 °F

Mild.


Feels Like: 64 °F
Forecast: 49 / 66 °F
Wind: 8 mph from East

Location: Omaezaki

Current Time: Apr 25, 2017 at 10:03:45 am

Latest Report: Apr 25, 2017 at 9:00 am


Visibility: 13 mi

Pressure: 30.35 "Hg

Humidity: 59%

Dew Point: 49 °F

Location of ShizuokaLocation

Past Weather in Shizuoka — Graph

°F

Shizuoka Temperature Yesterday

Maximum temperature yesterday: 65 °F (at 2:00 pm)
Minimum temperature yesterday: 57 °F (at 4:00 am)
Average temperature yesterday: 60 °F

High & Low Weather Summary for the Past Weeks

 TemperatureHumidityPressure
High69 °F (Apr 12, 12:00 pm)100% (Apr 15, 8:00 pm)30.36 "Hg (Apr 15, 8:00 pm)
Low47 °F (Apr 13, 5:00 am)28% (Apr 19, 2:00 pm)29.29 "Hg (Apr 11, 6:00 pm)
Average59 °F67%29.87 "Hg
* Reported Apr 10 8:00 am — Apr 25 8:00 am, Shizuoka, Weather by CustomWeather, © 2017

Note: Actual official high and low records may vary slightly from our data, if they occured in-between our weather recording intervals... More about our weather records

Advertising

Shizuoka Weather History for the Previous 24 Hours

Scroll right to see more
 ConditionsComfort  
Time TempWeatherWind HumidityBarometerVisibility
8:00 am
Tue, Apr 25
63 °FMild.8 mph61%30.35 "Hg12 mi
7:00 am60 °FCool.8 mph63%30.34 "Hg12 mi
6:00 am58 °FCool.7 mph72%30.34 "Hg12 mi
5:00 am58 °FCool.8 mph65%30.32 "Hg12 mi
4:00 am58 °FCool.7 mph68%30.32 "Hg12 mi
3:00 am58 °FCool.6 mph68%30.32 "Hg12 mi
2:00 am59 °FCool.8 mph67%30.33 "Hg12 mi
1:00 am59 °FCool.9 mph70%30.33 "Hg12 mi
12:00 am58 °FCool.8 mph72%30.34 "Hg12 mi
11:00 pm
Mon, Apr 24
58 °FCool.8 mph68%30.35 "Hg12 mi
10:00 pm59 °FCool.8 mph66%30.35 "Hg12 mi
9:00 pm60 °FCool.7 mph70%30.36 "Hg12 mi
8:00 pm60 °FCool.8 mph70%30.35 "Hg12 mi
7:00 pm60 °FCool.9 mph70%30.33 "Hg12 mi
6:00 pm61 °FCool.7 mph67%30.32 "Hg12 mi
5:00 pm62 °FCool.9 mph63%30.31 "Hg12 mi
4:00 pm63 °FMild.10 mph60%30.30 "Hg12 mi
3:00 pm63 °FMild.10 mph58%30.30 "Hg12 mi
2:00 pm65 °FMild.10 mph57%30.31 "Hg12 mi
1:00 pm63 °FMild.9 mph57%30.32 "Hg12 mi
12:00 pm63 °FMild.10 mph57%30.33 "Hg12 mi
11:00 am64 °FMild.10 mph57%30.34 "Hg12 mi
10:00 am63 °FMild.13 mph58%30.33 "Hg12 mi
Weather by CustomWeather, © 2017

See weather overviewHow to use our weather pages